Egegik, AK

1:35 AM AKDT on May 28, 2017 (GMT -0800)
Egegik

Weather History for PAII - March, 2014

Change the Weather History Date:

Tuesday, March 18, 2014

  Actual Average (PAKN) Record (PAKN)
Temperature  
Mean Temperature 25 °F -  
Max Temperature 33 °F 29 °F 52 °F (2005)
Min Temperature 17 °F 13 °F -21 °F (2012)
Degree Days  
Heating Degree Days 40    
Moisture  
Dew Point 21 °F    
Average Humidity 81    
Maximum Humidity 93    
Minimum Humidity 69    
Precipitation  
Precipitation 0.00 in - - ()
Sea Level Pressure  
Sea Level Pressure 30.02 in    
Wind  
Wind Speed 13 mph (WNW)    
Max Wind Speed 23 mph    
Max Gust Speed 30 mph    
Visibility 9 miles    
Events      
Averages and records for this station are not official NWS values.
T = Trace of Precipitation, MM = Missing Value Source: NWS Daily Summary

Daily Weather History Graph

Daily Weather History Graph

Search for Another Location

Airport or City:

Trip Planner

Search our weather history database for the weather conditions in past years. The results will help you decide how hot, cold, wet, or windy it might be!

Date:

Astronomy

Mar. 18, 2014 Rise Set
Actual Time 8:36 AM AKDT 8:39 PM AKDT
Civil Twilight 7:57 AM AKDT 9:19 PM AKDT
Nautical Twilight 7:10 AM AKDT 10:06 PM AKDT
Astronomical Twilight 6:20 AM AKDT 10:56 PM AKDT
Moon 11:46 PM AKDT (3/18) 9:02 AM AKDT (3/18)
Length of Visible Light 13h 22m
Length of Day
12h 03m
Waning Gibbous, 95% of the Moon is Illuminated
Mar 18
Waning Gibbous
Mar 23
Last Quarter
Mar 30
New
Apr 7
First Quarter
Apr 14
Full

Hourly Weather History & Observations

Time (AKDT) Temp. Windchill Dew Point Humidity Pressure Visibility Wind Dir Wind Speed Gust Speed Precip Events Conditions
12:16 AM 33.8 °F 30.8 °F 30.2 °F 87% 29.67 in 7.0 mi South 3.5 mph - N/A   Overcast
12:36 AM 33.8 °F 28.6 °F 30.2 °F 87% 29.68 in 7.0 mi South 5.8 mph - N/A   Overcast
12:56 AM 33.8 °F 28.6 °F 30.2 °F 87% 29.68 in 7.0 mi SSW 5.8 mph - N/A   Overcast
1:16 AM 33.8 °F 29.6 °F 30.2 °F 87% 29.69 in 3.0 mi South 4.6 mph - N/A   Overcast
1:36 AM 33.8 °F 28.6 °F 30.2 °F 87% 29.69 in 5.0 mi SSW 5.8 mph - N/A   Overcast
1:56 AM 33.8 °F 29.6 °F 30.2 °F 87% 29.70 in 4.0 mi SSW 4.6 mph - N/A   Overcast
2:16 AM 32.0 °F 22.1 °F 30.2 °F 93% 29.72 in 3.0 mi West 13.8 mph - N/A   Overcast
2:36 AM 28.4 °F 17.0 °F 26.6 °F 93% 29.73 in 5.0 mi West 15.0 mph 19.6 mph N/A   Overcast
2:56 AM 28.4 °F 15.4 °F 26.6 °F 93% 29.74 in 3.0 mi West 19.6 mph 23.0 mph N/A   Overcast
3:16 AM 28.4 °F 15.8 °F 24.8 °F 86% 29.76 in 5.0 mi West 18.4 mph 24.2 mph N/A   Overcast
3:36 AM 28.4 °F 16.6 °F 24.8 °F 86% 29.77 in 8.0 mi West 16.1 mph 24.2 mph N/A   Overcast
3:56 AM 26.6 °F 12.4 °F 23.0 °F 86% 29.79 in 10.0 mi West 21.9 mph 27.6 mph N/A   Overcast
4:16 AM 26.6 °F 12.0 °F 21.2 °F 80% 29.80 in 8.0 mi West 23.0 mph 29.9 mph N/A   Overcast
4:36 AM 26.6 °F 12.4 °F 21.2 °F 80% 29.81 in 9.0 mi West 21.9 mph 27.6 mph N/A   Overcast
4:56 AM 26.6 °F 12.7 °F 21.2 °F 80% 29.82 in 10.0 mi West 20.7 mph 28.8 mph N/A   Overcast
5:16 AM 24.8 °F 10.7 °F 19.4 °F 80% 29.83 in 10.0 mi West 19.6 mph 29.9 mph N/A   Overcast
5:36 AM 24.8 °F 10.3 °F 19.4 °F 80% 29.85 in 10.0 mi West 20.7 mph 28.8 mph N/A   Overcast
5:56 AM 24.8 °F 9.6 °F 19.4 °F 80% 29.85 in 10.0 mi West 23.0 mph 28.8 mph N/A   Overcast
6:16 AM 24.8 °F 10.3 °F 19.4 °F 80% 29.87 in 8.0 mi West 20.7 mph 27.6 mph N/A   Overcast
6:36 AM 23.0 °F 7.2 °F 19.4 °F 86% 29.88 in 10.0 mi WSW 23.0 mph 28.8 mph N/A   Overcast
6:56 AM 23.0 °F 8.0 °F 17.6 °F 80% 29.89 in 10.0 mi WSW 20.7 mph 27.6 mph N/A   Overcast
7:16 AM 23.0 °F 9.2 °F 17.6 °F 80% 29.90 in 10.0 mi WSW 17.3 mph 24.2 mph N/A   Overcast
7:36 AM 23.0 °F 9.2 °F 17.6 °F 80% 29.91 in 10.0 mi West 17.3 mph 21.9 mph N/A   Overcast
7:56 AM 23.0 °F 8.0 °F 17.6 °F 80% 29.92 in 10.0 mi WSW 20.7 mph - N/A   Overcast
8:16 AM 23.0 °F 8.0 °F 17.6 °F 80% 29.93 in 10.0 mi West 20.7 mph 25.3 mph N/A   Overcast
8:36 AM 21.2 °F 6.4 °F 17.6 °F 86% 29.94 in 10.0 mi WSW 18.4 mph 25.3 mph N/A   Overcast
8:56 AM 21.2 °F 5.6 °F 17.6 °F 86% 29.95 in 10.0 mi WSW 20.7 mph - N/A   Overcast
9:16 AM 21.2 °F 6.4 °F 17.6 °F 86% 29.96 in 10.0 mi WSW 18.4 mph 25.3 mph N/A   Overcast
9:36 AM 21.2 °F 6.4 °F 17.6 °F 86% 29.96 in 10.0 mi WSW 18.4 mph 26.5 mph N/A   Overcast
9:56 AM 21.2 °F 6.8 °F 17.6 °F 86% 29.97 in 10.0 mi WSW 17.3 mph 24.2 mph N/A   Overcast
10:16 AM 23.0 °F 9.6 °F 17.6 °F 80% 29.97 in 10.0 mi WSW 16.1 mph 26.5 mph N/A   Overcast
10:36 AM 23.0 °F 9.2 °F 17.6 °F 80% 29.98 in 7.0 mi WSW 17.3 mph - N/A   Overcast
10:56 AM 23.0 °F 9.2 °F 19.4 °F 86% 29.99 in 4.0 mi WSW 17.3 mph 21.9 mph N/A   Overcast
11:16 AM 24.8 °F 11.5 °F 19.4 °F 80% 30.00 in 7.0 mi WSW 17.3 mph 23.0 mph N/A   Overcast
11:36 AM 24.8 °F 11.5 °F 19.4 °F 80% 30.00 in 7.0 mi WSW 17.3 mph 23.0 mph N/A   Overcast
11:56 AM 24.8 °F 11.1 °F 21.2 °F 86% 30.01 in 3.0 mi WSW 18.4 mph 24.2 mph N/A   Overcast
12:16 PM 26.6 °F 14.7 °F 21.2 °F 80% 30.01 in 1.8 mi West 15.0 mph - N/A   Overcast
12:36 PM 28.4 °F 17.5 °F 24.8 °F 86% 30.01 in 4.0 mi WNW 13.8 mph - N/A   Overcast
12:56 PM 26.6 °F 13.8 °F 24.8 °F 93% 30.02 in 10.0 mi WNW 17.3 mph - N/A   Overcast
1:16 PM 28.4 °F 17.0 °F 24.8 °F 86% 30.03 in 10.0 mi WNW 15.0 mph - N/A   Overcast
1:36 PM 28.4 °F 16.6 °F 24.8 °F 86% 30.04 in 10.0 mi WNW 16.1 mph - N/A   Overcast
1:56 PM 28.4 °F 17.0 °F 24.8 °F 86% 30.05 in 10.0 mi NW 15.0 mph 18.4 mph N/A   Overcast
2:16 PM 28.4 °F 17.0 °F 24.8 °F 86% 30.06 in 10.0 mi NNW 15.0 mph 19.6 mph N/A   Overcast
2:36 PM 28.4 °F 18.0 °F 24.8 °F 86% 30.07 in 10.0 mi NNW 12.7 mph 18.4 mph N/A   Overcast
2:56 PM 28.4 °F 18.0 °F 24.8 °F 86% 30.09 in 10.0 mi North 12.7 mph 17.3 mph N/A   Overcast
3:16 PM 28.4 °F 18.0 °F 23.0 °F 80% 30.10 in 10.0 mi North 12.7 mph 18.4 mph N/A   Overcast
3:36 PM 28.4 °F 17.5 °F 24.8 °F 86% 30.11 in 10.0 mi North 13.8 mph - N/A   Overcast
3:56 PM 28.4 °F 18.0 °F 23.0 °F 80% 30.12 in 10.0 mi North 12.7 mph 18.4 mph N/A   Overcast
4:16 PM 28.4 °F 18.0 °F 23.0 °F 80% 30.13 in 10.0 mi North 12.7 mph 16.1 mph N/A   Overcast
4:36 PM 28.4 °F 18.0 °F 21.2 °F 74% 30.15 in 10.0 mi North 12.7 mph 17.3 mph N/A   Overcast
4:56 PM 28.4 °F 18.5 °F 21.2 °F 74% 30.16 in 10.0 mi North 11.5 mph - N/A   Overcast
5:16 PM 28.4 °F 19.1 °F 21.2 °F 74% 30.18 in 10.0 mi North 10.4 mph - N/A   Overcast
5:36 PM 26.6 °F 15.2 °F 21.2 °F 80% 30.19 in 10.0 mi North 13.8 mph - N/A   Overcast
5:56 PM 26.6 °F 15.2 °F 19.4 °F 74% 30.20 in 10.0 mi North 13.8 mph - N/A   Overcast
6:16 PM 24.8 °F 14.6 °F 19.4 °F 80% 30.20 in 10.0 mi North 10.4 mph - N/A   Overcast
6:36 PM 26.6 °F 16.2 °F 17.6 °F 69% 30.21 in 10.0 mi North 11.5 mph 17.3 mph N/A   Overcast
6:56 PM 26.6 °F 15.7 °F 17.6 °F 69% 30.22 in 10.0 mi North 12.7 mph 17.3 mph N/A   Overcast
7:16 PM 26.6 °F 16.8 °F 17.6 °F 69% 30.22 in 10.0 mi North 10.4 mph - N/A   Overcast
7:36 PM 26.6 °F 16.8 °F 17.6 °F 69% 30.22 in 10.0 mi North 10.4 mph - N/A   Overcast
7:56 PM 24.8 °F 16.1 °F 17.6 °F 74% 30.23 in 10.0 mi North 8.1 mph - N/A   Overcast
8:16 PM 24.8 °F 16.9 °F 17.6 °F 74% 30.25 in 10.0 mi North 6.9 mph - N/A   Overcast
8:36 PM 24.8 °F 17.9 °F 17.6 °F 74% 30.26 in 10.0 mi North 5.8 mph - N/A   Overcast
8:56 PM 24.8 °F 16.9 °F 17.6 °F 74% 30.27 in 10.0 mi North 6.9 mph - N/A   Overcast
9:16 PM 23.0 °F 15.8 °F 15.8 °F 74% 30.28 in 10.0 mi North 5.8 mph - N/A   Mostly Cloudy
9:36 PM 21.2 °F 13.6 °F 15.8 °F 80% 30.29 in 10.0 mi North 5.8 mph - N/A   Clear
9:56 PM 21.2 °F 12.6 °F 15.8 °F 80% 30.30 in 10.0 mi North 6.9 mph - N/A   Clear
10:16 PM 21.2 °F 13.6 °F 14.0 °F 74% 30.30 in 10.0 mi North 5.8 mph - N/A   Clear
10:36 PM 19.4 °F 12.8 °F 12.2 °F 74% 30.31 in 10.0 mi North 4.6 mph - N/A   Clear
10:56 PM 19.4 °F 11.5 °F 12.2 °F 74% 30.30 in 10.0 mi North 5.8 mph - N/A   Clear
11:16 PM 19.4 °F 10.4 °F 12.2 °F 74% 30.31 in 10.0 mi North 6.9 mph - N/A   Clear
11:36 PM 17.6 °F 9.3 °F 10.4 °F 73% 30.31 in 10.0 mi North 5.8 mph - N/A   Clear
11:56 PM 17.6 °F 10.7 °F 10.4 °F 73% 30.31 in 10.0 mi NNE 4.6 mph - N/A   Clear